Regional Weather Roundup
Issued by NWS

Home | Current Version | Previous Version | Graphics & Text | Print | Product List | Glossary On
Versions: 1 2 3 4 5 6 7 8 9 10 11 12 13 14 15 16 17 18 19 20 21 22 23 24 25 26 27 28 29 30 31 32 33 34 35 36 37 38 39 40 41 42 43 44 45 46 47 48 49 50
000
ASUS45 KTFX 011404
RWRMT
MONTANA HOURLY WEATHER ROUNDUP
NATIONAL WEATHER SERVICE GREAT FALLS MT
704 AM MST SUN MAR 1 2015

NOTE: "FAIR" INDICATES FEW OR NO CLOUDS BELOW 12000 FEET WITH NO
SIGNIFICANT WEATHER AND/OR OBSTRUCTIONS TO VISIBILITY.

* THESE STATIONS ARE NOT UNDER NWS QUALITY CONTROL. THEY DO NOT
   REPORT WEATHER SUCH AS PRECIPITATION OR FOG.

MTZ001>007-043-011500-
WEST OF THE DIVIDE
CITY           SKY/WX    TMP DP  RH WIND       PRES   REMARKS
KALISPELL      CLEAR     12   5  73 N8        30.26F
MISSOULA       CLEAR     16   7  67 SE7       30.30S WCI   6
BUTTE          PTCLDY     0  -6  75 SE3       30.20S
MULLAN PASS    CLEAR     12   0  58 S9        30.07S
* ANACONDA     PTCLDY     5  -2  72 S6         N/A   WCI  -6
* ESSEX        N/A        6   0  76 SE5G10     N/A   WCI  -3
* LINCOLN      N/A       -6 -11  78 N/A        N/A
* LOOKOUT PASS N/A        9   1  70 S2         N/A
* POLSON       N/A       14   8  77 N/A        N/A
* RONAN APT    CLEAR     14   9  80 N/A        N/A
* SEELEY LAKE  N/A       -5 -11  75 N2         N/A
* THOMP F APT  CLEAR      8  -4  58 NW11G24    N/A   WCI  -7
* YAAK HILL    N/A       16   7  67 E1         N/A
$$

MTZ008-052>055-011500-
SOUTHWEST MONTANA
CITY           SKY/WX    TMP DP  RH WIND       PRES   REMARKS
BOZEMAN        CLEAR      3  -2  79 SE6       30.27S WCI  -8
DILLON         CLEAR      3  -2  79 CALM      30.21S
* W YELLOWSTON PTCLDY   -14 -21  70 N/A        N/A
* THREE FORKS  PTCLDY     3  -2  79 N/A        N/A
* BOULDER HILL N/A        2  -7  65 S12        N/A   WCI -15
* MONIDA PASS  N/A        2  -3  79 SW6        N/A   WCI  -9
* RAYNOLDS PAS N/A       -4 -23  39 N/A        N/A
* WHITEHALL    N/A        2  -4  76 NW2G9      N/A
* WISE RIVER   N/A       -1  -7  75 S1         N/A
$$

MTZ009>010-012-014-046-048-049-054-011500-
EAST SLOPES AND CENTRAL MONTANA
CITY           SKY/WX    TMP DP  RH WIND       PRES   REMARKS
CUT BANK       CLEAR      9   5  84 CALM      30.18F
GREAT FALLS    CLEAR     12   7  80 S10       30.23F WCI  -1
HELENA         CLEAR      7   1  76 W5        30.29S WCI  -2
* DEARBORN     N/A        4   1  87 S2         N/A
* EAST GLACIER N/A        9   0  66 NW7G12     N/A   WCI  -2
* MONARCH      N/A        7   2  80 S11        N/A   WCI  -8
* PENDROY      N/A       15   6  67 W9         N/A   WCI   3
* ROGERS PASS  N/A        9   1  70 S6         N/A   WCI  -1
* SWEET GRASS  N/A       13  11  92 S12        N/A   WCI  -1
$$

MTZ011-013-016-021-035-040-045-047-050-051-011500-
NORTH CENTRAL MONTANA
CITY           SKY/WX    TMP DP  RH WIND       PRES   REMARKS
HAVRE          CLEAR      9   7  91 SW9       30.28S WCI  -4
LEWISTOWN      CLEAR     10   5  80 SW15      30.22S WCI  -7
* N BAR RANCH  MOCLDY    12   5  73 VRB6G17   30.19R WCI   2
* CHESTER      N/A        9   5  84 SW1        N/A
* DENTON       N/A       11   6  80 SW8        N/A   WCI  -1
* GEYSER       N/A       11   4  73 SW12       N/A   WCI  -4
* JUDITH GAP   N/A       10   6  84 NE6        N/A
* LOMA         N/A       13   8  80 W4         N/A
$$

MTZ017>020-022>027-061-062-011500-
NORTHEAST MONTANA
CITY           SKY/WX    TMP DP  RH WIND       PRES   REMARKS
GLASGOW        CLOUDY    16  10  77 NW13      30.24R WCI   2
GLENDIVE       MOCLDY    12  10  92 W8        30.21S
JORDAN         CLEAR     18  16  92 W7        30.25R WCI   9
SIDNEY         PTCLDY    16  10  77 W10       30.23R WCI   4
WOLF POINT     CLOUDY    16  10  77 W7        30.25R WCI   6
* BEAVER HILL  N/A       16  13  88 W12        N/A   WCI   3
* CIRCLE       N/A       16  14  92 W10        N/A   WCI   4
* LINDSAY DVD  N/A       15  13  92 W12G18     N/A   WCI   1
* NAVAJO       N/A       12  10  92 NW13       N/A   WCI  -3
* SACO         N/A       11   8  88 SE2        N/A
$$

MTZ028>042-056>058-011500-
SOUTHCENTRAL AND SOUTHEAST MONTANA
CITY           SKY/WX    TMP DP  RH WIND       PRES   REMARKS
BAKER          LGT SNOW  14  10  84 W10       30.19R VSB 3/4  WCI   1
BILLINGS       CLEAR     14   3  61 W10       30.26S WCI   1
LIVINGSTON     PTCLDY     7   0  73 NW9       30.23S WCI  -6
MILES CITY     MOCLDY    16  10  77 W12       30.25R WCI   3
* LAUREL APT   CLEAR      7  -2  66 N/A        N/A
* ROUNDUP APT  CLEAR      7  -2  66 N/A        N/A
* ALZADA       N/A        9   4  80 SW9        N/A   WCI  -4
* HYSHAM       N/A       11   5  77 W2         N/A
* LAME DEER    N/A        7   4  87 W8         N/A   WCI  -6
* REED POINT   N/A       14   6  70 SW4        N/A
* ROSCOE HILL  N/A       11  -7  44 SW6        N/A   WCI   1
$$

REGIONAL REPORTS...DAKOTAS
CITY           SKY/WX    TMP DP  RH WIND       PRES   REMARKS
WILLISTON      CLOUDY    12   9  88 W3        30.21R
DICKINSON      CLEAR     12   7  80 W12       30.14R WCI  -2
CROSBY         MOCLDY     5   5 100 W9        30.18R WCI  -9
WATFORD CITY   LGT SNOW  14  10  84 W8        30.17R WCI   3
BISMARCK       PTCLDY     9   3  76 CALM      30.19R
GRAND FORKS    MOCLDY     1  -6  72 SW6       30.15S WCI -11
FARGO          PTCLDY     3  -2  79 SW12      30.20S WCI -14
BUFFALO SD     PTCLDY     9   3  76 W9        30.12R WCI  -4
RAPID CITY     PTCLDY     7   3  83 CALM      30.23R
$$

REGIONAL REPORTS...WYOMING/IDAHO/WASHINGTON
CITY           SKY/WX    TMP DP  RH WIND       PRES   REMARKS
GILLETTE       CLEAR      7   3  83 W7        30.20R WCI  -5
SHERIDAN       PTCLDY     3   0  87 CALM      30.23R
CODY           PTCLDY     7   3  83 CALM      30.20R
YELLOWSTONE LA PTCLDY   -18 -24  73 CALM      30.11R
SALMON         PTCLDY    12   7  80 CALM      30.25R
MULLAN PASS    CLEAR     12   0  58 S9        30.07S
SAND POINT     CLEAR     18  12  77 CALM      30.26S
SPOKANE        FAIR      21  12  68 CALM      30.21S

$$



USA.gov is the U.S. government's official web portal to all federal, state and local government web resources and services.